Tracking 22879 objects as of 21-Apr-2021
HD Live streaming from Space Station
objects crossing your sky now

ARIANE 5 DEB (SYLDA)

Track ARIANE 5 DEB (SYLDA) now!
10-day predictions


NORAD ID: 40666
Int'l Code: 2015-026D
Perigee: 194.1 km
Apogee: 20,091.1 km
Inclination: 3.8 °
Period: 352.0 minutes
Semi major axis: 16513 km
RCS: Unknown
Launch date: May 27, 2015
Source: France (FR)
Launch site: FRENCH GUIANA (FRGUI)

Note: This is SATELLITE DEBRIS
aabbcc
Your satellite tracking list
Your tracking list is empty




NASA's NSSDC Master Catalog

Two Line Element Set (TLE):
1 40666U 15026D   21110.62782527  .00360234 -17038-6  79380-2 0  9993
2 40666   3.8109 192.0261 6024436 202.7478 112.2846  4.09109412 65354
Source of the keplerian elements: AFSPC